Regional Weather Roundup
Issued by NWS

Home | Current Version | Previous Version | Text Only | Print | Product List | Glossary Off
Versions: 1 2 3 4 5 6 7 8 9 10 11 12 13 14 15 16 17 18 19 20 21 22 23 24 25 26 27 28 29 30 31 32 33 34 35 36 37 38 39 40 41 42 43 44 45 46 47 48 49 50

902
ASUS43 KFSD 301510
RWRSD

WEATHER ROUNDUP FOR SOUTH DAKOTA
NATIONAL WEATHER SERVICE SIOUX FALLS SD
1000 AM CDT SAT JUL 30 2016

NOTE: "FAIR" INDICATES FEW OR NO CLOUDS BELOW 12,000 FEET WITH NO
SIGNIFICANT WEATHER AND/OR OBSTRUCTIONS TO VISIBILITY.


SDZ001>005-009-010-012>017-301600-
NORTHWEST AND NORTH CENTRAL SOUTH DAKOTA

CITY           SKY/WX    TMP DP  RH WIND       PRES   REMARKS
BUFFALO          N/A     75  59  57 VRB3      29.86F
FAITH            N/A     73  61  65 S12       29.92F
MOBRIDGE       SUNNY     77  60  55 S18       29.91F
$$

SDZ012>016-024>037-041>051-057-063-072>074-301600-
SOUTHWEST AND SOUTH CENTRAL SOUTH DAKOTA

CITY           SKY/WX    TMP DP  RH WIND       PRES   REMARKS
RAPID CTY ARPT SUNNY     71  58  63 SE5       29.95R
PIERRE         SUNNY     76  63  64 S14       29.93
CUSTER         SUNNY     74  50  42 CALM      30.07S
ELLSWORTH AFB  SUNNY     76  56  50 SE6       29.94S
PHILIP         SUNNY     74  63  68 SE8       29.92F
PINE RIDGE     SUNNY     74  61  63 S13       29.97S
WINNER         FAIR      73  60  63 S10       29.97F
$$

SDZ004>011-016>023-039-040-301600-
NORTHEAST SOUTH DAKOTA

CITY           SKY/WX    TMP DP  RH WIND       PRES   REMARKS
ABERDEEN       SUNNY     73  62  68 S15       29.98F
WATERTOWN      SUNNY     70  59  68 S10       30.03S
BROOKINGS      SUNNY     71  61  70 S6        30.03F
SISSETON         N/A     75  60  59 S8        29.99S
$$

SDZ017-020-022-023-036>040-048>070-301600-
SOUTHEAST SOUTH DAKOTA

CITY           SKY/WX    TMP DP  RH WIND       PRES   REMARKS
SIOUX FALLS    MOSUNNY   72  62  71 S8        30.03F
HURON          SUNNY     73  61  65 S10       29.99S
CHAMBERLAIN    SUNNY     75  65  71 S6        29.97S
MITCHELL       SUNNY     74  62  66 S9        30.00S
YANKTON        SUNNY     72  63  73 SE9       30.00F
$$

ABBREVIATIONS USED IN REMARKS
   TC - TEMPERATURE IN CELSIUS
  WCI - WIND CHILL INDEX
   HX - HEAT INDEX
  VSB - VISIBILITY





USA.gov is the U.S. government's official web portal to all federal, state and local government web resources and services.